| time (UTC) | temp F | wind direction | speed MPH | gust MPH | rain 1hr in | rain 24hr in | rain mn in | humidity % | barometer mb |
| 20260903201828 | 91 | 163 | 2.0 | 4.0 | 0.00 | 0.00 | 0.00 | 67 | 1011.8 |
| 20260903195847 | 90 | 155 | 2.0 | 5.0 | 0.00 | 0.00 | 0.00 | 68 | 1012.1 |
| 20260903194813 | 90 | 162 | 3.0 | 6.0 | 0.00 | 0.00 | 0.00 | 68 | 1012.1 |
| 20260903192843 | 89 | 167 | 3.0 | 6.0 | 0.00 | 0.00 | 0.00 | 70 | 1012.5 |
| 20260903185811 | 89 | 149 | 2.0 | 5.0 | 0.00 | 0.00 | 0.00 | 69 | 1013.2 |
| 20260903184813 | 88 | 162 | 3.0 | 6.0 | 0.00 | 0.00 | 0.00 | 69 | 1013.2 |
| 20260903183840 | 89 | 166 | 4.0 | 9.0 | 0.00 | 0.00 | 0.00 | 67 | 1013.2 |
| 20260903182828 | 90 | 167 | 2.0 | 6.0 | 0.00 | 0.00 | 0.00 | 67 | 1013.5 |
| 20260903181826 | 90 | 153 | 5.0 | 9.0 | 0.00 | 0.00 | 0.00 | 66 | 1013.5 |
| 20260903180813 | 90 | 167 | 4.0 | 7.0 | 0.00 | 0.00 | 0.00 | 65 | 1013.5 |
| 20260903175816 | 89 | 160 | 4.0 | 10.0 | 0.00 | 0.00 | 0.00 | 67 | 1013.8 |
| 20260903174804 | 91 | 174 | 3.0 | 8.0 | 0.00 | 0.00 | 0.00 | 65 | 1013.5 |
| 20260903173825 | 89 | 163 | 3.0 | 7.0 | 0.00 | 0.00 | 0.00 | 69 | 1013.8 |
| 20260903172837 | 89 | 166 | 2.0 | 3.0 | 0.00 | 0.00 | 0.00 | 68 | 1014.2 |
| 20260903171845 | 88 | 161 | 3.0 | 7.0 | 0.00 | 0.00 | 0.00 | 69 | 1014.2 |
| 20260903170821 | 88 | 159 | 3.0 | 6.0 | 0.00 | 0.00 | 0.00 | 70 | 1014.2 |
| 20260903165814 | 88 | 163 | 3.0 | 6.0 | 0.00 | 0.00 | 0.00 | 72 | 1014.2 |
| 20260903164818 | 87 | 160 | 2.0 | 3.0 | 0.00 | 0.00 | 0.00 | 72 | 1014.2 |
| 20260903162813 | 86 | 147 | 1.0 | 4.0 | 0.00 | 0.00 | 0.00 | 75 | 1014.2 |
| 20260903161813 | 85 | 151 | 1.0 | 4.0 | 0.00 | 0.00 | 0.00 | 76 | 1014.2 |
| 20260903160838 | 85 | 119 | 1.0 | 3.0 | 0.00 | 0.00 | 0.00 | 78 | 1013.8 |
| 20260903155819 | 84 | 164 | 0.0 | 1.0 | 0.00 | 0.00 | 0.00 | 79 | 1014.2 |
| 20260903153839 | 82 | 139 | 1.0 | 2.0 | 0.00 | 0.00 | 0.00 | 81 | 1014.2 |
| 20260903152840 | 82 | 154 | 2.0 | 4.0 | 0.00 | 0.00 | 0.00 | 81 | 1014.2 |
| 20260903151823 | 82 | 146 | 1.0 | 3.0 | 0.00 | 0.00 | 0.00 | 81 | 1014.2 |
| 20260903143843 | 81 | 139 | 0.0 | 2.0 | 0.00 | 0.00 | 0.00 | 82 | 1014.2 |
| 20260903142847 | 81 | 141 | 1.0 | 3.0 | 0.00 | 0.00 | 0.00 | 82 | 1014.2 |
| 20260903140830 | 80 | 151 | 0.0 | 3.0 | 0.00 | 0.00 | 0.00 | 83 | 1013.8 |
| 20260903135839 | 80 | 124 | 1.0 | 3.0 | 0.00 | 0.00 | 0.00 | 83 | 1014.2 |
| 20260903134824 | 79 | 158 | 2.0 | 4.0 | 0.00 | 0.00 | 0.00 | 84 | 1013.8 |
| 20260903133837 | 78 | 137 | 0.0 | 2.0 | 0.00 | 0.00 | 0.00 | 85 | 1014.2 |
| 20260903131821 | 78 | 114 | 0.0 | 1.0 | 0.00 | 0.00 | 0.00 | 86 | 1014.2 |
| 20260903130832 | 77 | 78 | 0.0 | 1.0 | 0.00 | 0.00 | 0.00 | 87 | 1013.8 |
| 20260903125831 | 77 | 59 | 0.0 | 1.0 | 0.00 | 0.00 | 0.00 | 87 | 1013.8 |
| 20260903124847 | 77 | 85 | 0.0 | 1.0 | 0.00 | 0.00 | 0.00 | 87 | 1014.2 |
| 20260903122812 | 77 | 115 | 0.0 | 1.0 | 0.00 | 0.00 | 0.00 | 86 | 1013.8 |
| 20260903121833 | 77 | 122 | 0.0 | 1.0 | 0.00 | 0.00 | 0.00 | 86 | 1013.5 |
| 20260903120831 | 77 | 106 | 0.0 | 1.0 | 0.00 | 0.00 | 0.00 | 86 | 1013.8 |
| 20260903114842 | 77 | 71 | 0.0 | 1.0 | 0.00 | 0.00 | 0.00 | 85 | 1013.5 |
| 20260903113842 | 77 | 128 | 0.0 | 1.0 | 0.00 | 0.00 | 0.00 | 85 | 1013.5 |
| 20260903112830 | 77 | 76 | 0.0 | 1.0 | 0.00 | 0.00 | 0.00 | 85 | 1013.5 |
| 20260903111817 | 77 | 99 | 0.0 | 2.0 | 0.00 | 0.00 | 0.00 | 85 | 1013.5 |
| 20260903110810 | 77 | 144 | 0.0 | 1.0 | 0.00 | 0.00 | 0.00 | 85 | 1013.5 |
| 20260903105827 | 77 | 140 | 0.0 | 2.0 | 0.00 | 0.00 | 0.00 | 85 | 1013.2 |
| 20260903104845 | 77 | 114 | 0.0 | 1.0 | 0.00 | 0.00 | 0.00 | 85 | 1013.5 |
| 20260903103840 | 77 | 85 | 0.0 | 1.0 | 0.00 | 0.00 | 0.00 | 85 | 1013.2 |
| 20260903102822 | 77 | 102 | 0.0 | 1.0 | 0.00 | 0.00 | 0.00 | 85 | 1013.5 |
| 20260903101835 | 77 | 78 | 0.0 | 1.0 | 0.00 | 0.00 | 0.00 | 85 | 1013.5 |
| 20260903100810 | 77 | 62 | 0.0 | 1.0 | 0.00 | 0.00 | 0.00 | 85 | 1013.2 |
| 20260903095816 | 77 | 57 | 0.0 | 1.0 | 0.00 | 0.00 | 0.00 | 83 | 1013.5 |
| 20260903094819 | 77 | 65 | 0.0 | 0.0 | 0.00 | 0.00 | 0.00 | 84 | 1013.2 |
| 20260903093829 | 77 | 89 | 0.0 | 0.0 | 0.00 | 0.00 | 0.00 | 84 | 1013.2 |
| 20260903091832 | 78 | 93 | 0.0 | 0.0 | 0.00 | 0.00 | 0.00 | 83 | 1012.8 |
| 20260903090823 | 78 | 49 | 0.0 | 1.0 | 0.00 | 0.00 | 0.00 | 82 | 1013.2 |
| 20260903085829 | 78 | 113 | 0.0 | 1.0 | 0.00 | 0.00 | 0.00 | 81 | 1013.2 |
| 20260903084840 | 78 | 249 | 0.0 | 0.0 | 0.00 | 0.00 | 0.00 | 81 | 1013.5 |
| 20260903083848 | 79 | 51 | 0.0 | 1.0 | 0.00 | 0.00 | 0.00 | 80 | 1013.2 |
| 20260903080849 | 79 | 119 | 0.0 | 1.0 | 0.00 | 0.00 | 0.00 | 78 | 1013.5 |
| 20260903075804 | 80 | 142 | 0.0 | 1.0 | 0.00 | 0.00 | 0.00 | 77 | 1013.5 |
| 20260903073808 | 80 | 101 | 0.0 | 1.0 | 0.00 | 0.00 | 0.00 | 76 | 1013.5 |
| 20260903072841 | 80 | 110 | 0.0 | 0.0 | 0.00 | 0.00 | 0.00 | 75 | 1013.5 |
| 20260903064821 | 81 | 158 | 1.0 | 2.0 | 0.00 | 0.00 | 0.00 | 73 | 1013.8 |
| 20260903063838 | 81 | 153 | 1.0 | 2.0 | 0.00 | 0.00 | 0.00 | 73 | 1013.8 |
| 20260903062835 | 82 | 158 | 1.0 | 4.0 | 0.00 | 0.00 | 0.00 | 72 | 1013.8 |
| 20260903060817 | 82 | 149 | 1.0 | 3.0 | 0.00 | 0.00 | 0.00 | 71 | 1013.8 |
| 20260903055833 | 82 | 147 | 1.0 | 5.0 | 0.00 | 0.00 | 0.00 | 70 | 1014.2 |
| 20260903054830 | 83 | 154 | 2.0 | 4.0 | 0.00 | 0.00 | 0.00 | 69 | 1014.2 |
| 20260903053814 | 83 | 158 | 2.0 | 3.0 | 0.00 | 0.00 | 0.00 | 69 | 1014.2 |
| 20260903051823 | 84 | 148 | 1.0 | 3.0 | 0.00 | 0.00 | 0.00 | 68 | 1013.8 |
| 20260903050820 | 84 | 156 | 1.0 | 5.0 | 0.00 | 0.00 | 0.00 | 68 | 1013.8 |
| 20260903045822 | 85 | 155 | 0.0 | 2.0 | 0.00 | 0.00 | 0.00 | 67 | 1013.8 |
| 20260903044840 | 85 | 134 | 0.0 | 1.0 | 0.00 | 0.00 | 0.00 | 67 | 1013.5 |
| 20260903042812 | 86 | 123 | 1.0 | 2.0 | 0.00 | 0.00 | 0.00 | 65 | 1013.8 |
| 20260903041833 | 86 | 146 | 0.0 | 2.0 | 0.00 | 0.00 | 0.00 | 65 | 1013.5 |
| 20260903040826 | 87 | 147 | 0.0 | 3.0 | 0.00 | 0.00 | 0.00 | 64 | 1013.8 |
| 20260903034844 | 87 | 144 | 0.0 | 2.0 | 0.00 | 0.00 | 0.00 | 61 | 1013.5 |
| 20260903033820 | 88 | 154 | 0.0 | 2.0 | 0.00 | 0.00 | 0.00 | 60 | 1013.8 |
| 20260903032828 | 88 | 126 | 1.0 | 2.0 | 0.00 | 0.00 | 0.00 | 59 | 1013.8 |
| 20260903031817 | 88 | 142 | 1.0 | 2.0 | 0.00 | 0.00 | 0.00 | 58 | 1013.8 |
| 20260903030806 | 89 | 138 | 1.0 | 2.0 | 0.00 | 0.00 | 0.00 | 58 | 1013.8 |
| 20260903025819 | 89 | 156 | 1.0 | 2.0 | 0.00 | 0.00 | 0.00 | 57 | 1013.5 |
| 20260903024823 | 89 | 146 | 1.0 | 5.0 | 0.00 | 0.00 | 0.00 | 57 | 1013.5 |
| 20260903023841 | 90 | 148 | 1.0 | 3.0 | 0.00 | 0.00 | 0.00 | 56 | 1013.5 |
| 20260903022847 | 90 | 149 | 1.0 | 4.0 | 0.00 | 0.00 | 0.00 | 56 | 1012.8 |
| 20260903021818 | 90 | 158 | 0.0 | 3.0 | 0.00 | 0.00 | 0.00 | 55 | 1012.8 |
| 20260903020809 | 91 | 123 | 0.0 | 2.0 | 0.00 | 0.00 | 0.00 | 54 | 1012.8 |
| 20260903015846 | 91 | 137 | 1.0 | 4.0 | 0.00 | 0.00 | 0.00 | 53 | 1012.8 |
| 20260903014835 | 92 | 175 | 2.0 | 6.0 | 0.00 | 0.00 | 0.00 | 51 | 1012.8 |
| 20260903013836 | 93 | 130 | 1.0 | 4.0 | 0.00 | 0.00 | 0.00 | 48 | 1012.5 |
| 20260903012829 | 93 | 55 | 1.0 | 4.0 | 0.00 | 0.00 | 0.00 | 47 | 1012.1 |
| 20260903010819 | 94 | 57 | 1.0 | 4.0 | 0.00 | 0.00 | 0.00 | 47 | 1011.8 |
| 20260903005838 | 95 | 71 | 2.0 | 6.0 | 0.00 | 0.00 | 0.00 | 47 | 1011.8 |
| 20260903003832 | 96 | 59 | 1.0 | 3.0 | 0.00 | 0.00 | 0.00 | 42 | 1011.8 |
| 20260903002839 | 96 | 66 | 1.0 | 4.0 | 0.00 | 0.00 | 0.00 | 41 | 1011.8 |
| 20260903000833 | 97 | 92 | 1.0 | 3.0 | 0.00 | 0.00 | 0.00 | 40 | 1011.8 |
| 20260902235813 | 97 | 55 | 1.0 | 4.0 | 0.00 | 0.00 | 0.00 | 41 | 1011.8 |
| 20260902234807 | 97 | 90 | 1.0 | 2.0 | 0.00 | 0.00 | 0.00 | 40 | 1011.5 |
| 20260902233831 | 98 | 62 | 1.0 | 4.0 | 0.00 | 0.00 | 0.00 | 39 | 1011.8 |
| 20260902232833 | 98 | 39 | 2.0 | 4.0 | 0.00 | 0.00 | 0.00 | 40 | 1011.5 |
| 20260902231842 | 98 | 52 | 1.0 | 2.0 | 0.00 | 0.00 | 0.00 | 40 | 1011.8 |
| 20260902230845 | 98 | 72 | 1.0 | 2.0 | 0.00 | 0.00 | 0.00 | 39 | 1011.8 |
| 20260902225810 | 98 | 98 | 1.0 | 3.0 | 0.00 | 0.00 | 0.00 | 39 | 1011.8 |
| 20260902224821 | 99 | 107 | 1.0 | 4.0 | 0.00 | 0.00 | 0.00 | 38 | 1011.8 |
| 20260902223836 | 99 | 69 | 1.0 | 4.0 | 0.00 | 0.00 | 0.00 | 38 | 1011.8 |
| 20260902221815 | 99 | 64 | 1.0 | 2.0 | 0.00 | 0.00 | 0.00 | 40 | 1011.8 |
| 20260902220815 | 99 | 94 | 1.0 | 4.0 | 0.00 | 0.00 | 0.00 | 40 | 1012.1 |
| 20260902215840 | 99 | 93 | 1.0 | 3.0 | 0.00 | 0.00 | 0.00 | 41 | 1012.1 |
| 20260902214814 | 99 | 62 | 1.0 | 3.0 | 0.00 | 0.00 | 0.00 | 40 | 1012.1 |
| 20260902213811 | 99 | 97 | 1.0 | 2.0 | 0.00 | 0.00 | 0.00 | 40 | 1012.1 |
| 20260902212821 | 99 | 184 | 1.0 | 3.0 | 0.00 | 0.00 | 0.00 | 39 | 1012.1 |
| 20260902211830 | 99 | 92 | 1.0 | 4.0 | 0.00 | 0.00 | 0.00 | 40 | 1012.1 |
| 20260902210805 | 98 | 223 | 1.0 | 2.0 | 0.00 | 0.00 | 0.00 | 41 | 1012.8 |
| 20260902204809 | 98 | 175 | 1.0 | 3.0 | 0.00 | 0.00 | 0.00 | 42 | 1012.5 |